Torna al catalogo

CZ-6A DEB

AttivoSSO
NORAD 54524·DEBRIS·🇨🇳 China

Lanciato Nov 11, 2022 da Taiyuan Satellite Launch Center

Loading…

Prossimi Passaggi (prossime 24 ore)

TLE

AggiornatoSource: Space-Track

Epoca: Sep 14, 2026, 13:27 UTC

1 54524U 22151KC  26257.56076344  .00003370  00000-0  65915-3 0  9990
2 54524  98.4570 293.1913 0086155 358.5125   1.5806 14.61211547202935

Traccia CZ-6A DEB in tempo reale con AllMySat

Download on the App Store